STARLINK-35030

Last updated on Thu Oct 02 2025 00:02:05 GMT+0000 (Coordinated Universal Time)

1 65448U 25194Q 25274.52903764 .00120256 00000+0 30347-2 0 9998 2 65448 97.6033 126.8070 0002555 112.4804 247.6711 15.39370179 5657

Satellite not in orbit

STARLINK-35030